Regional Weather Roundup
Issued by NWS

Home | Current Version | Previous Version | Graphics & Text | Print | Product List | Glossary On
Versions: 1 2 3 4 5 6 7 8 9 10 11 12 13 14 15 16 17 18 19 20 21 22 23 24 25 26 27 28 29 30 31 32 33 34 35 36 37 38 39 40 41 42 43 44 45 46 47 48 49 50
000
ASUS43 KIND 261609
RWRIN

WEATHER ROUNDUP FOR INDIANA
NATIONAL WEATHER SERVICE INDIANAPOLIS IN
1100 AM EST WED NOV 26 2014

NOTE: "FAIR" INDICATES FEW OR NO CLOUDS BELOW 12,000 FEET WITH NO
SIGNIFICANT WEATHER AND/OR OBSTRUCTIONS TO VISIBILITY.

* - STATION DOES NOT REPORT WEATHER SUCH AS PRECIPITATION OR FOG.

+ - STATION NOT QUALITY CONTROLLED BY THE NATIONAL WEATHER SERVICE.
    USE DATA WITH CAUTION...ESPECIALLY DEWPOINT AND RELATIVE
    HUMIDITY OBSERVATIONS.

INZ001>003-010>013-019-020-261700-
NORTHWEST INDIANA

CITY           SKY/WX    TMP DP  RH WIND       PRES   REMARKS
GARY /AIRPORT/ CLOUDY    27  19  74 SE9       30.17S WCI  17
KNOX *+        CLOUDY    26  20  78 SE7       30.16S WCI  18
LA PORTE +     CLOUDY    28  22  78 E9        30.16S WCI  19
MICHIGAN CITY+ CLOUDY    27  19  74 E5        30.17F WCI  21
MONTICELLO +   CLOUDY    26  20  79 SE6       30.15S WCI  20
RENSSELAER +   CLOUDY    28  25  86 E7        30.16R WCI  21
VALPARAISO     CLOUDY    25  19  78 SE8       30.17S WCI  16

$$

LMZ046-743>745-261700-
SOUTHERN LAKE MICHIGAN

STATION/POSITION TIME  TEMP WIND        PRES
                       AIR  DIR/SP/G
                 (UTC) (F)  (DEG/KT/KT) (MB)
MICHIGAN CITY    1600   25   50/  8/  9   N/A

$$

INZ004-005-014>016-021>024-261700-
NORTH CENTRAL INDIANA

CITY           SKY/WX    TMP DP  RH WIND       PRES   REMARKS
ELKHART        CLOUDY    27  18  69 E10       30.17R WCI  17
GOSHEN         CLOUDY    27  19  72 E9        30.16S WCI  18
LOGANSPORT +   CLOUDY    28  21  74 E9        30.16F WCI  20
PERU/GRISSOM   CLOUDY    27  24  90 SE10      30.13F WCI  17
ROCHESTER +    PTSUNNY   30  23  74 E9        30.15F WCI  22
SOUTH BEND     CLOUDY    27  19  72 SE9       30.17R WCI  18
WARSAW +       CLOUDY    27  21  80 SE9       30.16S WCI  17

$$

INZ006>009-017-018-025>027-261700-
NORTHEAST INDIANA

CITY           SKY/WX    TMP DP  RH WIND       PRES   REMARKS
ANGOLA *+      CLOUDY    27  19  74 E8        30.14F WCI  18
AUBURN +       CLOUDY    28  21  74 E5        30.16F WCI  23
FORT WAYNE     CLOUDY    28  21  75 E7        30.16F WCI  21
HUNTINGTON +   CLOUDY    27  21  79 SE8       30.15F WCI  18

$$

INZ028-029-035-036-043>045-051>053-261700-
WEST CENTRAL INDIANA

CITY           SKY/WX    TMP DP  RH WIND       PRES   REMARKS
GREENCASTLE +  CLOUDY    28  23  80 SE9       30.13S WCI  20
LAFAYETTE      CLOUDY    26  20  77 E7        30.15S WCI  18
TERRE HAUTE    CLOUDY    27  22  81 S6        30.15F WCI  20

$$

INZ030>032-037>040-046>048-054>057-064-065-261700-
CENTRAL INDIANA

CITY           SKY/WX    TMP DP  RH WIND       PRES   REMARKS
CP ATTERBURY + CLOUDY    32  27  80 E3        30.14F
COLUMBUS       CLOUDY    32  27  80 E5        30.14F WCI  27
FRANKFORT +    CLOUDY    28  23  82 NE9       30.14F WCI  19
INDIANAPOLIS   PTSUNNY   29  21  72 E10       30.11F WCI  20
-EAGLE CREEK   CLOUDY    28  21  75 SE8       30.12F WCI  20
KOKOMO *+      CLOUDY    27  19  74 E13       30.14F WCI  16
MARION +         N/A     27  21  78 E6        30.16S HAZE    WCI  20
MT COMFORT *+  CLOUDY    30  16  55 E7        30.13F WCI  23
SHELBYVILLE    CLOUDY    32  23  69 E5        30.13F WCI  27
ZIONSVILLE +   CLOUDY    29  21  72 SE7       30.14S WCI  22

$$

INZ033-034-041-042-049-050-058-059-261700-
EAST CENTRAL INDIANA

CITY           SKY/WX    TMP DP  RH WIND       PRES   REMARKS
MUNCIE         CLOUDY    27  21  78 VRB3      30.14F

$$

INZ060-061-067>069-081>083-085>088-261700-
SOUTHWEST INDIANA

CITY           SKY/WX    TMP DP  RH WIND       PRES   REMARKS
EVANSVILLE     SUNNY     33  26  75 SE6       30.15S WCI  28
HUNTINGBURG *+ MOSUNNY   32  27  80 SE5       30.14S WCI  27
WASHINGTON +   MOSUNNY   32  26  77 CALM      30.15R

$$

INZ062-063-066-070>080-084-089>092-261700-
SOUTH CENTRAL AND SOUTHEAST INDIANA

CITY           SKY/WX    TMP DP  RH WIND       PRES   REMARKS
BLOOMINGTON    PTSUNNY   30  24  78 SE5       30.12F WCI  25

$$




USA.gov is the U.S. government's official web portal to all federal, state and local government web resources and services.